Voltar ao catálogo

STARLINK-31556

AtivoComunicaçõesVLEO
NORAD 59544·PAYLOAD·🇺🇸 United States

Lançado Apr 18, 2024 de Cape Canaveral Space Force Station

Loading…

Próximas Passagens (próximas 24 horas)

TLE

AtualizadoSource: CelesTrak SupGP

Época: Sep 14, 2026, 20:18 UTC

1 59544C 24074L   26257.84631944  .00018070  00000+0  65451-3 0  2571
2 59544  43.0036 355.4374 0001497 271.3754  10.1547 15.27568225    18

Acompanhe STARLINK-31556 em tempo real com AllMySat

Download on the App Store